TimeEST,TemperatureF,Dew PointF,Humidity,Sea Level PressureIn,VisibilityMPH,Wind Direction,Wind SpeedMPH,Gust SpeedMPH,PrecipitationIn,Events,Conditions,WindDirDegrees,DateUTC
12:15 AM,38.5,23.2,54,30.20,10.0,Calm,Calm,-,N/A,,Scattered Clouds,0,2013-12-14 05:15:00
12:35 AM,37.6,25.2,61,30.18,10.0,East,3.5,-,N/A,,Mostly Cloudy,90,2013-12-14 05:35:00
12:55 AM,35.6,26.8,70,30.20,10.0,Calm,Calm,-,N/A,,Scattered Clouds,0,2013-12-14 05:55:00
1:15 AM,35.6,26.8,70,30.21,10.0,Calm,Calm,-,N/A,,Scattered Clouds,0,2013-12-14 06:15:00
1:35 AM,35.2,28.2,76,30.21,10.0,Calm,Calm,-,N/A,,Scattered Clouds,0,2013-12-14 06:35:00
1:55 AM,35.8,27.5,72,30.20,10.0,ENE,6.9,-,N/A,,Mostly Cloudy,60,2013-12-14 06:55:00
2:15 AM,36.5,26.6,67,30.19,10.0,Calm,Calm,-,N/A,,Mostly Cloudy,0,2013-12-14 07:15:00
2:35 AM,36.5,27.7,70,30.20,10.0,Calm,Calm,-,N/A,,Overcast,0,2013-12-14 07:35:00
2:55 AM,36.1,28.6,74,30.19,10.0,Calm,Calm,-,N/A,,Overcast,0,2013-12-14 07:55:00
3:15 AM,36.5,28.2,72,30.18,10.0,Calm,Calm,-,N/A,,Mostly Cloudy,0,2013-12-14 08:15:00
3:35 AM,36.3,28.2,72,30.18,10.0,Calm,Calm,-,N/A,,Scattered Clouds,0,2013-12-14 08:35:00
3:55 AM,36.5,27.7,70,30.14,10.0,NE,5.8,-,N/A,,Mostly Cloudy,50,2013-12-14 08:55:00
4:15 AM,36.1,28.6,74,30.14,10.0,Calm,Calm,-,N/A,,Overcast,0,2013-12-14 09:15:00
4:35 AM,36.5,29.3,75,30.13,10.0,Calm,Calm,-,N/A,,Overcast,0,2013-12-14 09:35:00
4:55 AM,36.7,29.7,76,30.12,10.0,Calm,Calm,-,N/A,,Overcast,0,2013-12-14 09:55:00
5:15 AM,36.5,29.8,77,30.12,10.0,Calm,Calm,-,N/A,,Overcast,0,2013-12-14 10:15:00
5:35 AM,38.5,29.1,69,30.09,10.0,ESE,4.6,-,N/A,,Overcast,110,2013-12-14 10:35:00
5:55 AM,39.7,30.2,69,30.11,10.0,Calm,Calm,-,N/A,,Overcast,0,2013-12-14 10:55:00
6:15 AM,40.1,31.1,70,30.10,10.0,Calm,Calm,-,N/A,,Overcast,0,2013-12-14 11:15:00
6:35 AM,40.1,31.6,72,30.10,10.0,ENE,5.8,-,N/A,,Overcast,60,2013-12-14 11:35:00
6:55 AM,39.6,30.0,69,30.10,10.0,ENE,3.5,-,N/A,,Overcast,60,2013-12-14 11:55:00
7:15 AM,40.1,29.8,67,30.09,10.0,NE,3.5,-,N/A,,Overcast,50,2013-12-14 12:15:00
7:35 AM,39.2,32.0,75,30.09,7.0,Calm,Calm,-,N/A,Rain,Rain,0,2013-12-14 12:35:00
7:55 AM,38.3,33.8,84,30.06,5.0,ENE,4.6,-,N/A,Rain,Rain,60,2013-12-14 12:55:00
8:15 AM,37.6,34.2,87,30.05,10.0,ENE,3.5,-,N/A,Rain,Rain,70,2013-12-14 13:15:00
8:35 AM,38.3,35.6,90,30.04,7.0,Calm,Calm,-,N/A,Rain,Light Rain,0,2013-12-14 13:35:00
8:55 AM,38.3,36.1,92,30.04,4.0,Calm,Calm,-,N/A,Rain,Rain,0,2013-12-14 13:55:00
9:15 AM,38.7,37.0,94,30.03,2.5,Calm,Calm,-,N/A,Rain,Rain,0,2013-12-14 14:15:00
9:35 AM,39.2,37.4,93,30.03,3.0,Calm,Calm,-,N/A,Rain,Rain,0,2013-12-14 14:35:00
9:55 AM,39.2,37.6,94,30.01,1.5,Calm,Calm,-,N/A,Rain,Rain,0,2013-12-14 14:55:00
10:15 AM,39.6,38.3,95,30.00,1.5,Calm,Calm,-,N/A,Rain,Rain,0,2013-12-14 15:15:00
10:35 AM,39.7,38.7,96,29.99,1.8,Calm,Calm,-,N/A,Rain,Rain,0,2013-12-14 15:35:00
10:55 AM,40.8,39.6,95,29.97,2.0,NE,3.5,-,N/A,Rain,Rain,50,2013-12-14 15:55:00
11:15 AM,41.5,40.6,97,29.95,3.0,ENE,4.6,-,N/A,Rain,Rain,60,2013-12-14 16:15:00
11:35 AM,41.9,41.0,97,29.97,1.0,Calm,Calm,-,N/A,Rain,Light Rain,0,2013-12-14 16:35:00
11:55 AM,43.0,42.3,97,29.96,5.0,ENE,4.6,-,N/A,Rain,Light Rain,60,2013-12-14 16:55:00
12:15 PM,43.7,43.0,97,29.94,10.0,East,4.6,-,N/A,,Overcast,80,2013-12-14 17:15:00
12:35 PM,45.1,44.6,98,29.92,10.0,East,5.8,-,N/A,,Overcast,80,2013-12-14 17:35:00
12:55 PM,45.5,44.1,95,29.90,10.0,ENE,3.5,-,N/A,,Overcast,70,2013-12-14 17:55:00
1:15 PM,45.9,44.1,93,29.89,10.0,Calm,Calm,-,0.01,,Overcast,0,2013-12-14 18:15:00
1:35 PM,46.4,44.6,93,29.88,10.0,Calm,Calm,-,0.01,Rain,Light Rain,0,2013-12-14 18:35:00
1:55 PM,46.4,45.0,95,29.87,7.0,Calm,Calm,-,0.01,,Light Drizzle,0,2013-12-14 18:55:00
2:15 PM,46.8,45.1,94,29.87,10.0,Calm,Calm,-,N/A,,Overcast,0,2013-12-14 19:15:00
2:35 PM,46.6,45.1,95,29.86,10.0,Calm,Calm,-,N/A,,Overcast,0,2013-12-14 19:35:00
2:55 PM,46.8,45.5,95,29.86,10.0,Calm,Calm,-,N/A,,Overcast,0,2013-12-14 19:55:00
3:15 PM,46.8,46.0,97,29.85,10.0,Calm,Calm,-,N/A,,Overcast,0,2013-12-14 20:15:00
3:35 PM,46.8,46.4,99,29.85,7.0,Calm,Calm,-,0.01,,Overcast,0,2013-12-14 20:35:00
3:55 PM,46.9,46.4,98,29.85,10.0,Calm,Calm,-,0.01,,Overcast,0,2013-12-14 20:55:00
4:15 PM,46.8,46.4,99,29.84,10.0,Calm,Calm,-,N/A,,Overcast,0,2013-12-14 21:15:00
4:35 PM,46.9,46.6,99,29.85,10.0,Calm,Calm,-,N/A,,Overcast,0,2013-12-14 21:35:00
4:55 PM,46.6,46.4,99,29.86,10.0,Calm,Calm,-,N/A,,Overcast,0,2013-12-14 21:55:00
5:15 PM,46.2,45.9,99,29.85,10.0,Calm,Calm,-,N/A,Rain,Light Rain,0,2013-12-14 22:15:00
5:35 PM,45.3,45.0,99,29.85,10.0,Calm,Calm,-,0.01,,Mostly Cloudy,0,2013-12-14 22:35:00
5:55 PM,44.2,43.9,99,29.86,7.0,Calm,Calm,-,0.01,,Overcast,0,2013-12-14 22:55:00
6:15 PM,44.4,44.1,99,29.86,5.0,Calm,Calm,-,N/A,,Overcast,0,2013-12-14 23:15:00
6:35 PM,44.1,43.7,99,29.86,4.0,Calm,Calm,-,N/A,,Overcast,0,2013-12-14 23:35:00
6:55 PM,43.9,43.3,98,29.85,2.0,Calm,Calm,-,N/A,,Overcast,0,2013-12-14 23:55:00
7:15 PM,43.2,42.6,98,29.84,0.8,Calm,Calm,-,N/A,,Overcast,0,2013-12-15 00:15:00
7:35 PM,42.8,42.3,98,29.84,0.5,Calm,Calm,-,N/A,Fog,Fog,0,2013-12-15 00:35:00
7:55 PM,43.2,42.6,98,29.87,0.5,Calm,Calm,-,N/A,Fog,Fog,0,2013-12-15 00:55:00
8:15 PM,43.7,43.0,97,29.89,0.5,Calm,Calm,-,N/A,Fog,Fog,0,2013-12-15 01:15:00
8:35 PM,43.9,43.2,97,29.86,1.0,Calm,Calm,-,N/A,,Overcast,0,2013-12-15 01:35:00
8:55 PM,43.7,43.0,97,29.84,3.0,Calm,Calm,-,N/A,,Overcast,0,2013-12-15 01:55:00
9:15 PM,44.1,43.3,97,29.85,4.0,Calm,Calm,-,N/A,,Overcast,0,2013-12-15 02:15:00
9:35 PM,44.1,43.3,97,29.83,4.0,Calm,Calm,-,N/A,,Overcast,0,2013-12-15 02:35:00
9:55 PM,44.1,43.3,97,29.84,4.0,Calm,Calm,-,N/A,,Overcast,0,2013-12-15 02:55:00
10:15 PM,44.1,43.2,97,29.84,4.0,Calm,Calm,-,N/A,,Overcast,0,2013-12-15 03:15:00
10:35 PM,43.9,43.0,97,29.82,4.0,Calm,Calm,-,N/A,,Overcast,0,2013-12-15 03:35:00
10:55 PM,44.1,43.2,97,29.83,4.0,Calm,Calm,-,N/A,,Overcast,0,2013-12-15 03:55:00
11:15 PM,43.7,42.8,97,29.80,2.5,Calm,Calm,-,0.01,,Overcast,0,2013-12-15 04:15:00
11:35 PM,43.7,42.8,97,29.80,2.5,Calm,Calm,-,0.01,,Overcast,0,2013-12-15 04:35:00
11:55 PM,43.3,42.4,97,29.82,2.0,Calm,Calm,-,0.01,,Overcast,0,2013-12-15 04:55:00